Simultaneous Nadir Overpasses (SNOs) Predictions

Prediction of SNOs between METOP-B and TERRA Satellite Orbit:

Table of predicted SNOs for the next 14.0 days since TLE Epoch: 10/9/2021
Index Date (METOP-B) Time (METOP-B) Lat,Lon (METOP-B) SZA (METOP-B ) Date (TERRA) Time (TERRA) Lat,Lon (TERRA) SZA (TERRA ) Distance(km) Time Diff (sec)
1 10/09/2021 21:49:52 81.24,-103.43 90.61 10/09/2021 21:50:58 81.25,-103.28 90.66 2.47 66
2 10/09/2021 22:40:31 -81.26, 64.74 89.28 10/09/2021 22:40:24 -81.27, 64.64 89.29 1.84 7
3 10/12/2021 17:24:15 81.24, -36.98 91.69 10/12/2021 17:25:10 81.24, -37.06 91.70 1.80 55
4 10/12/2021 18:14:55 -81.26, 130.84 88.24 10/12/2021 18:14:36 -81.25, 130.89 88.25 0.71 19
5 10/15/2021 12:58:37 81.24, 29.45 92.75 10/15/2021 12:59:20 81.24, 29.48 92.77 0.61 43
6 10/15/2021 13:49:17 -81.26,-162.70 87.18 10/15/2021 13:48:46 -81.26,-162.55 87.17 2.56 31
7 10/18/2021 08:33:00 81.24, 95.85 93.79 10/18/2021 08:33:31 81.24, 95.96 93.81 1.93 31
8 10/18/2021 09:23:39 -81.26, -95.88 86.09 10/18/2021 09:22:57 -81.27, -96.04 86.13 2.69 42
9 10/21/2021 04:07:23 81.24, 162.22 94.80 10/21/2021 04:07:42 81.24, 162.39 94.83 2.91 19



Historial Predications of SNOs between METOP-B and TERRA
